724  
ASUS42 KCHS 250527  
RWRCHS  
 
REGIONAL WEATHER ROUNDUP  
NATIONAL WEATHER SERVICE CHARLESTON SC  
100 AM EDT MON MAY 25 2020  
 
NOTE: "FAIR" INDICATES FEW OR NO CLOUDS BELOW 12,000 FEET WITH NO  
SIGNIFICANT WEATHER AND/OR S TO VISIBILITY
.  
 
NOT ALL STATIONS ARE QUALITY CONTROLLED. USE DATA WITH CAUTION,  
ESPECIALLY DEWPOINT OBSERVATIONS.  
 
SCZ027-030-031-034>040-042>050-250600-   
..SOUTHEAST SOUTH CAROLINA
 
 
 
CITY SKY/WX TMP DP RH WIND PRES REMARKS
 
N CHARLESTON FAIR 72 70 93 NE3 30.06F  
WATERFRONT PRK N/A 77 74 91 CALM 29.91F  
MOUNT PLEASANT FAIR 72 72 100 CALM 30.06F  
JOHNS ISLAND FAIR 73 72 94 CALM 30.06F  
PINOPOLIS N/A 73 72 94 E5 30.01S  
MONCKS CORNER FAIR 70 70 100 CALM 30.07F  
SUMMERVILLE N/A N/A N/A N/A MISG N/A  
BEAUFORT MCAS FAIR 77 73 87 CALM 30.06S  
BEAUFORT ARPT FAIR 75 73 94 MISG 30.06S  
HILTON HEAD IS FAIR 73 72 94 CALM 30.07S  
WALTERBORO FAIR 70 68 94 NE3 30.08S  
ALLENDALE FAIR 72 70 94 CALM 30.06F  
   
..SOUTHERN MIDLANDS AND PEE DEE
 
 
 
CITY SKY/WX TMP DP RH WIND PRES REMARKS
 
GEORGETOWN FAIR 72 72 100 E5 30.08F  
KINGSTREE CLOUDY 72 70 94 CALM 30.08F  
ORANGEBURG FAIR 72 66 81 SE5 30.07F  
BARNWELL FAIR 72 68 88 CALM 30.07F  
AIKEN LGT RAIN 70 69 96 S5 30.08F  
MANNING CLOUDY 70 68 94 NE3 30.08F  
COLUMBIA CLOUDY 71 68 90 NE5 30.06F  
SUMTER MOCLDY 70 69 96 NE3 30.08S  
FLORENCE CLOUDY 71 67 87 E5 30.09F  
MYRTLE BEACH CLOUDY 75 72 90 E8 30.10R  
N MYRTLE BEACH CLOUDY 75 71 87 E8 30.09S  
 

 
 
GAZ063-065-086>088-099>101-113>116-118-119-134>141-150-250600-   
..SOUTHEAST GEORGIA
 
 
 
CITY SKY/WX TMP DP RH WIND PRES REMARKS
 
SAVANNAH ARPT FAIR 76 73 91 N6 30.06S  
HUNTER AAF FAIR 75 72 88 CALM 30.03S  
FORT STEWART FAIR 72 70 95 CALM 30.03S FOG  
STATESBORO FAIR 69 67 93 N3 30.07R  
SYLVANIA FAIR 73 70 91 CALM 30.08F  
CLAXTON FAIR 70 69 95 CALM 30.06S  
MILLEN FAIR 69 68 96 NE3 30.07F  
METTER FAIR 71 69 93 CALM 30.06S  
REIDSVILLE NOT AVBL  
   
..CSRA, CENTRAL AND FAR SOUTHEAST GEORGIA
 
 
 
CITY SKY/WX TMP DP RH WIND PRES REMARKS
 
THOMSON FAIR 70 N/A N/A S3 30.08F HAZE  
AUGUSTA-BUSH MOCLDY 74 69 85 CALM 30.07F  
AUGUSTA-DANIEL LGT RAIN 75 68 78 SE3 30.09S  
SWAINSBORO FAIR 70 68 94 NE6 30.08R  
VIDALIA FAIR 73 66 78 SE3 30.06S  
EASTMAN FAIR 73 67 82 E3 30.07S  
HAZLEHURST FAIR 75 69 82 NE5 30.04S  
ALMA FAIR 73 70 90 E5 30.03F  
WAYCROSS FAIR 73 68 84 E3 30.03F  
JESUP FAIR 73 70 88 CALM 30.05S  
BAXLEY FAIR 70 70 100 CALM 30.04S  
BRUNSWICK FAIR 73 72 96 CALM 30.04S  
SAINT SIMONS FAIR 78 74 87 E7 30.03S  
 

 
 
SCZ027-028-034-036>038-045-046-048>050-GAZ119-141-250600-   
..LAKE AND SUPPLEMENTAL COASTAL OBSERVATIONS
 
 
 
STATION/POSITION TIME TEMP WIND PRES WAVE SWELL
 
AIR SEA DIR/SP/G HT/PER HT/PER/DIR  
(UTC) (F) (DEG/KT/KT) (MB) (FT/S) (FT/S/D)  
WINYAH BAY 0445 76 90/ 8 1018.0S  
LAKE MURRAY 0450 72 CALM / 1 N/A  
CHRLSTN HARBOR 0448 78 79 20/ 4/ 5 1018.3F  
ACE BASIN NERRS 0445 74 CALM 1018.0S  
FORT PULASKI 0448 77 78 120/ 3/ 3 1018.1F  
SAPELO ISLAND 0500 76 CALM 1017.0  
 

 
 
ANZ835-935-AMZ111-154-330-350-352-354-370-450-454-472-250600-   
..C-MAN AND BUOY OBSERVATIONS
 
 
 
STATION/POSITION TIME TEMP WIND PRES WAVE SWELL
 
AIR SEA DIR/SP/G HT/PER HT/PER/DIR  
(UTC) (F) (DEG/KT/KT) (MB) (FT/S) (FT/S/D)  
BUOY 41004 0510 76 76 1017.8  
BUOY 41008 0450 78 78 130/ 8/ 8 1017.0S 2/11 2/130/11  
FOLLY BEACH CMAN 0500 77 50/ 4/ 5 1018.6F  
CAPERS NEARSHORE 0508 77 79 100/ 4/ 6 1017.7F  
FRIPP NEARSHORE NOT AVBL  
 
 
STATION/POSITION TIME TEMP WIND PRES WAVE SWELL
 
AIR SEA DIR/SP/G HT/PER HT/PER/DIR  
(UTC) (F) (DEG/KT/KT) (MB) (FT/S) (FT/S/D)  
5E ST. MARYS GA 0500 78 N/A 3/11 2/ 90/11  
FRYING PAN BUOY 0510 75 76 70/ 16/ 17 1018.2  
BUOY 41025 0500 62 79 10/ 14/ 17 1019.2  
CAPE LOOKOUT NC 0500 65 40/ 17/ 19 1020.3F  
BUOY 41002 NOT AVBL  
BUOY 41010 0510 79 120/ 16/ 19 N/A  
ST AUGUSTINE FL 0500 78 78 1015.9F  
 

 
 
 
CLICK HERE TO GO TO PREVIOUS BULLETINS.

The Nexlab SC Page
The Nexlab GA Page Main Text Page